sat.trackr.live / text

‹ back to catalog

QIANFAN-97

NORAD 66039 · 2025-233G

PAYLOAD ACTIVE UNKNOWN

§ Identity

Operator
Country
PRC
Launch date
2025-10-17
Launch site
TAISC
Launch vehicle
Mass (kg)
RCS (m²)

External: N2YO · Heavens-Above · Gunter

§ Orbital elements

Epoch: 2026-05-25T02:53:13.066368Z

Period
106.59 min
Inclination
89.0024°
Eccentricity
0.0002116
Mean motion
13.51006447 rev/d
Perigee alt
1,067.0 km
Apogee alt
1,070.1 km
Semi-major
7,446.7 km
B*
1.9002e-4
RAAN
45.5168°
Arg perigee
69.2449°
Mean anomaly
290.8928°
Rev number
3,007

§ Raw data

QIANFAN-971 66039U 25233G   26145.12029012  .00000135  00000+0  19002-3 0  99972 66039  89.0024  45.5168 0002116  69.2449 290.8928 13.51006447 30071

JSON: /api/v1/satellites/66039 · /tle

For live sub-satellite position, see the globe view (requires WebGL).

§ Visibility from observer

Set your observer location to see the next 7 days of passes ≥ 10°. The values pass through the URL so the page stays shareable.

No JS? Fill the form by hand. The geolocation button needs JavaScript.